This demonstration page uses our WeatherBlox Daily Observations layout. Learn more.

41.55636, -103.73856

Hourly Observations for March 25, 2019

Temp ( °F °C ) Dew Point ( °F °C ) Humidity (%) Winds ( mph kmh ) Pressure ( in mb ) Visibility ( mi km ) Precip ( " mm )
12:53 am 00:53 Cloudy 40 4.4 40 4.4 100 100 ESE 3 6 30.21 1023 10 16.09344 0.001 0.001
1:53 am 01:53 Cloudy 40 4.4 40 4.4 100 100 ESE 5 7 30.21 1023 8 12.874752 0.001 0.001
2:07 am 02:07 Cloudy 40 4.4 40 4.4 100 100 E 5 7 30.24 1024 7 11.265408 0 0
2:39 am 02:39 Cloudy with Rain 40 4.4 40 4.4 100 100 S 3 6 30.27 1025 4 6.437376 0.01 0.254
2:51 am 02:51 Cloudy with Light Rain 39 4 39 4 100 100 ESE 7 11 30.24 1024 3 4.828032 0.03 0.762
2:53 am 02:53 Cloudy with Light Rain 40 4.4 40 4.4 100 100 ESE 8 13 30.21 1023 3 4.828032 0.04 1.016
3:00 am 03:00 Cloudy with Light Rain 39 4 39 4 100 100 ESE 9 15 30.24 1024 4 6.437376 0 0
3:53 am 03:53 Partly Cloudy with Mist and Fog 38 3.3 38 3.3 100 100 ESE 7 11 30.21 1023 4 6.437376 0.01 0.254
4:25 am 04:25 Mostly Clear with Mist and Fog 36 2.2 36 2.2 100 100 SE 8 13 30.27 1025 2.5 4.02336 0 0
4:32 am 04:32 Mostly Clear with Mist and Fog 35 1.7 35 1.7 100 100 ESE 7 11 30.3 1026 3 4.828032 0 0
4:37 am 04:37 Clear with Mist and Fog 35 1.7 35 1.7 100 100 ESE 7 11 30.3 1026 1.75 2.816352 0 0
4:41 am 04:41 Mostly Cloudy with Mist and Fog 35 1.7 35 1.7 100 100 ESE 6 9 30.3 1026 0.75 1.207008 0 0
4:53 am 04:53 Mostly Cloudy with Mist and Fog 35 1.7 35 1.7 100 100 SE 6 9 30.21 1023 0.75 1.207008 0 0
4:56 am 04:56 Mostly Clear with Mist and Fog 36 2 36 2 100 100 SE 8 13 30.27 1025 1.5 2.414016 0 0
4:59 am 04:59 Mostly Clear with Mist and Fog 37 2.8 37 2.8 100 100 SE 8 13 30.27 1025 3 4.828032 0 0
5:53 am 05:53 Clear with Mist and Fog 34 1.1 34 1.1 100 100 E 6 9 30.21 1023 5 8.04672 0 0
6:53 am 06:53 Sunny 37 2.8 36 2.2 96 96 SSW 10 17 30.21 1023 10 16.09344 0 0
7:53 am 07:53 Sunny 39 3.9 39 3.9 100 100 S 6 9 30.21 1023 10 16.09344 0 0
8:53 am 08:53 Partly Cloudy 45 7.2 35 1.7 68 68 WSW 12 19 30.21 1023 10 16.09344 0 0
9:53 am 09:53 Cloudy 48 8.9 34 1.1 58 58 W 17 28 30.21 1023 10 16.09344 0 0
10:53 am 10:53 Partly Cloudy 51 10.6 33 0.6 50 50 WNW 17 28 30.21 1023 10 16.09344 0 0
11:53 am 11:53 Partly Cloudy 53 11.7 34 1.1 48 48 NW 17 28 30.21 1023 10 16.09344 0 0
12:53 pm 12:53 Cloudy with Light Rain 48 8.9 39 3.9 71 71 N 9 15 30.24 1024 10 16.09344 0.001 0.001
1:53 pm 13:53 Cloudy 51 10.6 37 2.8 59 59 N 6 9 30.21 1023 10 16.09344 0.001 0.001
2:53 pm 14:53 Mostly Sunny 55 12.8 38 3.3 53 53 NW 8 13 30.18 1022 10 16.09344 0 0
3:53 pm 15:53 Cloudy 57 13.9 37 2.8 47 47 WNW 16 26 30.18 1022 10 16.09344 0 0
4:53 pm 16:53 Cloudy with Light Rain 51 10.6 43 6.1 74 74 NW 9 15 30.21 1023 7 11.265408 0.01 0.254
5:53 pm 17:53 Sunny 54 12.2 40 4.4 59 59 NNW 13 20 30.21 1023 10 16.09344 0.001 0.001
6:53 pm 18:53 Mostly Cloudy 50 10 40 4.4 68 68 N 12 19 30.21 1023 10 16.09344 0 0
7:53 pm 19:53 Clear 43 6.1 39 3.9 86 86 NE 3 6 30.24 1024 10 16.09344 0 0
8:53 pm 20:53 Clear 42 5.6 38 3.3 85 85 SSE 3 6 30.24 1024 10 16.09344 0 0
9:53 pm 21:53 Clear 39 3.9 37 2.8 93 93 SSE 3 6 30.27 1025 10 16.09344 0 0
10:53 pm 22:53 Clear 35 1.7 35 1.7 100 100 E 6 9 30.27 1025 10 16.09344 0 0
11:53 pm 23:53 Clear 34 1.1 34 1.1 100 100 E 7 11 30.24 1024 10 16.09344 0 0

Powered by AerisWeather